This is the latest recevied weather packets stored in our database for station/object N4TLC. If no packets are shown the sender has not sent any weather packets the latest 1 day(s).
| Time | Temp. | Humidity | Pressure | Rain* | Wind** | Luminosity | Snow |
|---|---|---|---|---|---|---|---|
| 1778074440 | 18.33° C | 69% | 1015.7 hPa | 0 mm | - | 155 W/m² | - |
| 1778073532 | 18.33° C | 69% | 1015.5 hPa | 0 mm | - | 154 W/m² | - |
| 1778073228 | 17.78° C | 69% | 1015.2 hPa | 0 mm | - | 196 W/m² | - |
| 1778071110 | 17.22° C | 72% | 1015.6 hPa | 0 mm | - | 101 W/m² | - |
| 1778070808 | 17.22° C | 71% | 1016 hPa | 0 mm | - | 70 W/m² | - |
| 1778069900 | 17.22° C | 72% | 1016 hPa | 0 mm | - | 108 W/m² | - |
| 1778069597 | 17.22° C | 72% | 1015.8 hPa | 0 mm | - | 103 W/m² | - |
| 1778069294 | 17.22° C | 72% | 1015.6 hPa | 0 mm | - | 93 W/m² | - |
| 1778068992 | 17.22° C | 72% | 1015.7 hPa | 0 mm | - | 74 W/m² | - |
| 1778067178 | 16.67° C | 73% | 1015.5 hPa | 0 mm | - | 56 W/m² | - |
| 1778066269 | 16.67° C | 74% | 1015.4 hPa | 0 mm | - | 43 W/m² | - |
| 1778065967 | 16.67° C | 74% | 1015.6 hPa | 0 mm | - | 31 W/m² | - |
| 1778064150 | 16.67° C | 73% | 1014.9 hPa | 0 mm | - | 6 W/m² | - |
| 1778063847 | 16.67° C | 73% | 1014.9 hPa | 0 mm | - | 5 W/m² | - |
| 1778063544 | 16.67° C | 73% | 1014.8 hPa | 0 mm | - | 4 W/m² | - |
| 1778063242 | 16.67° C | 72% | 1015 hPa | 0 mm | - | 3 W/m² | - |
| 1778062636 | 16.67° C | 72% | 1015 hPa | 0 mm | - | 1 W/m² | - |
| 1778062031 | 16.67° C | 72% | 1014.8 hPa | 0 mm | - | 0 W/m² | - |
| 1778061427 | 16.67° C | 71% | 1014.9 hPa | 0 mm | - | 0 W/m² | - |
| 1778060519 | 16.67° C | 71% | 1015.1 hPa | 0 mm | - | 0 W/m² | - |
| 1778056581 | 17.22° C | 69% | 1015.5 hPa | 0 mm | - | 0 W/m² | - |
| 1778056279 | 17.22° C | 69% | 1015.2 hPa | 0 mm | - | 0 W/m² | - |
| 1778055671 | 17.22° C | 69% | 1015.4 hPa | 0 mm | - | 0 W/m² | - |
| 1778054461 | 17.22° C | 69% | 1015.5 hPa | 0 mm | - | 0 W/m² | - |
| 1778053855 | 17.22° C | 69% | 1015.6 hPa | 0 mm | - | 0 W/m² | - |
* Rain latest hour (hover to see other rain measurements)
** Current wind speed in m/s (hover to see current wind gust speed)